Wind_Speed
9 8 7 7 7 7 7 7 7 8 8 7 7 7 7 7 6 7 7 7 7 7 7 7 7 6 6 5 5 5 5 5 6 6 6 6 5 5 5 4 4 4 4 3
10 9 8 8 7 7 7 7 7 7 8 8 8 7 7 6 6 6 7 8 7 7 7 7 6 6 6 5 5 5 5 5 5 5 5 5 4 3 4 4 4 3 3 3
11 10 9 8 8 8 7 8 8 8 8 8 7 6 6 5 5 6 7 7 6 6 6 6 5 5 5 5 4 4 5 5 5 5 4 4 3 4 4 3 3 3 2 2
11 10 10 10 9 9 8 8 8 8 8 8 7 7 6 6 6 6 6 5 5 5 6 6 5 5 5 4 4 5 5 5 4 4 4 4 4 4 4 3 3 3 3 3
12 12 11 11 10 9 9 8 8 8 8 8 8 8 7 7 6 6 5 5 6 6 6 6 5 5 4 5 5 4 4 4 5 5 5 5 4 4 4 4 3 3 3 4
14 13 12 11 11 10 9 9 9 8 8 9 8 8 7 7 7 7 6 6 6 6 6 6 6 5 5 5 5 4 4 5 5 5 5 5 4 4 5 4 4 3 3 4
15 14 13 13 12 12 10 9 9 9 10 10 8 9 8 7 7 7 7 7 7 7 6 6 6 6 6 6 5 5 5 6 6 6 5 6 6 5 5 4 4 4 4 4
16 16 15 14 13 13 11 11 11 11 11 11 10 10 9 8 8 8 8 8 8 8 7 6 6 6 6 6 5 5 5 6 6 6 6 6 6 6 5 4 4 5 5 4
17 16 15 15 15 14 14 13 12 12 12 12 12 11 10 9 9 9 9 9 8 8 8 7 7 7 7 7 6 6 6 6 6 6 6 6 6 6 6 5 5 6 6 5
18 17 16 16 16 15 14 14 14 14 13 13 13 12 11 11 10 10 10 10 9 9 8 8 8 8 8 8 8 8 7 6 6 6 6 6 6 6 6 5 6 6 6 6
18 18 17 17 16 16 16 16 15 15 15 14 14 13 12 12 12 11 11 11 10 10 10 9 9 9 9 9 8 8 8 7 7 6 6 6 6 6 6 6 6 6 6 6
18 18 18 17 17 17 17 17 16 16 16 16 16 15 14 14 14 14 13 13 12 11 10 10 10 10 9 9 9 9 9 9 8 8 7 7 7 7 7 7 7 7 7 7
19 19 19 18 18 17 18 18 18 18 17 17 17 16 16 15 15 15 15 15 14 13 12 11 11 11 11 10 10 10 10 10 9 9 8 8 7 8 8 8 8 8 8 8
19 19 19 19 19 19 18 19 19 19 18 18 17 17 17 16 16 16 15 15 15 14 14 13 13 13 12 12 11 11 11 10 10 9 9 9 8 8 8 9 9 9 9 9
20 19 19 20 20 19 19 19 19 19 19 19 19 18 18 18 17 16 15 15 15 15 15 14 14 14 14 13 13 12 11 11 11 10 10 10 10 10 10 10 10 10 10 10
21 20 20 20 20 20 20 19 20 20 20 20 19 19 19 19 18 17 17 17 16 16 16 16 16 15 16 15 14 14 13 13 12 12 11 11 11 11 11 11 11 11 12 11
22 22 21 21 21 21 22 20 21 20 20 20 20 20 20 19 19 18 18 19 18 18 18 18 18 17 16 16 16 16 15 15 15 14 13 13 13 13 13 13 13 13 13 13
24 24 24 23 23 24 22 21 22 22 21 20 20 20 21 20 20 19 19 20 20 19 19 19 18 17 18 18 18 18 17 17 16 16 15 15 14 15 15 15 14 14 14 13
25 25 25 25 26 26 24 23 23 23 23 22 22 22 21 20 20 19 19 20 20 20 19 19 18 18 19 19 19 19 19 18 18 18 18 17 17 17 16 15 15 15 15 14
26 26 27 27 27 28 25 24 24 25 25 24 23 23 22 21 20 20 20 20 21 21 21 20 19 19 20 20 20 20 20 20 20 20 20 20 19 18 17 17 17 17 16 16
27 27 28 28 29 28 27 25 26 26 26 25 24 24 23 22 21 21 20 20 21 21 21 21 20 20 21 21 21 21 22 21 21 21 21 21 21 20 20 20 19 19 19 18
28 28 28 29 29 28 27 27 27 27 26 26 25 24 24 23 22 21 21 21 21 21 21 21 21 22 22 22 22 22 23 23 22 22 22 22 22 22 22 21 21 21 20 20
27 27 27 28 27 27 26 26 27 27 27 26 26 25 25 24 23 23 22 22 22 22 22 22 22 23 23 24 24 24 24 24 23 23 23 23 23 24 24 23 22 22 22 22
26 26 27 27 26 26 25 25 25 26 26 26 26 26 26 26 25 24 24 24 24 23 23 23 23 23 24 25 25 25 25 25 25 25 25 25 25 25 26 25 24 24 24 23
26 26 26 26 25 24 25 25 24 24 24 24 25 25 26 27 27 27 26 26 25 25 24 24 23 24 25 26 26 26 26 26 26 26 27 27 27 27 27 28 27 27 26 26
27 26 26 26 24 24 24 25 25 25 25 25 26 27 27 27 28 27 27 26 26 26 26 25 25 25 25 26 26 26 26 26 27 28 28 29 29 28 28 28 28 28 28 28
Wind_Direction
244 247 252 258 263 267 272 282 290 291 293 297 294 294 296 296 295 296 297 301 304 304 310 311 308 307 303 299 299 303 304 301 303 304 304 306 301 295 294 299 301 291 280 279
243 247 251 255 260 265 269 276 282 284 289 296 294 292 293 293 294 295 300 301 302 306 311 312 306 302 302 299 297 300 305 306 306 307 310 314 315 307 304 300 303 291 276 277
244 246 249 254 258 264 267 272 275 280 284 290 296 295 296 296 298 301 303 302 298 303 313 314 301 294 299 295 297 301 304 307 305 312 314 321 322 325 318 309 303 299 287 282
243 244 246 250 254 259 262 266 271 279 280 283 289 291 301 299 300 307 310 313 314 309 311 314 305 293 296 295 294 297 307 311 306 313 317 312 322 331 330 316 305 293 284 283
243 243 244 248 250 252 257 263 270 277 278 279 283 285 290 296 301 305 307 311 315 312 308 310 308 299 297 299 294 293 300 310 315 312 309 311 310 315 317 309 304 303 291 288
243 245 244 246 246 247 255 261 269 275 276 276 280 281 284 291 294 297 303 305 307 307 308 305 304 306 303 298 294 288 289 299 308 310 304 301 301 305 305 304 305 308 303 296
243 244 244 244 243 244 251 258 268 272 273 274 276 276 280 286 288 287 290 297 301 302 306 305 304 306 304 298 294 290 291 297 301 301 298 289 286 290 293 293 303 310 311 301
241 242 242 240 240 243 247 253 260 267 269 271 270 272 277 283 284 284 285 290 296 296 295 296 299 302 300 296 294 296 302 301 301 299 299 290 281 282 279 284 295 301 305 304
238 240 240 239 239 243 246 250 256 261 265 269 270 272 274 276 279 279 281 284 289 290 286 286 289 292 295 292 291 292 297 302 300 297 295 290 281 277 271 278 293 298 296 294
237 240 240 239 240 242 244 249 254 258 263 268 270 271 271 272 275 277 281 280 280 281 278 280 285 288 290 291 292 292 293 300 303 301 296 289 284 280 273 275 285 293 289 290
237 240 242 241 241 242 244 249 255 258 260 262 268 271 270 270 273 275 275 280 283 282 273 276 281 285 284 284 288 288 289 296 301 296 293 286 283 281 278 280 286 290 288 287
237 240 244 244 243 244 246 249 252 255 259 262 265 269 270 269 270 272 273 277 279 279 275 274 273 278 278 279 282 282 284 288 292 291 287 284 281 279 277 280 284 288 291 288
239 238 241 244 245 245 246 247 249 253 257 261 265 268 270 270 270 271 271 273 275 274 272 273 273 273 274 275 279 282 282 283 286 285 280 280 279 277 276 278 281 288 292 290
239 239 241 244 247 249 247 247 249 253 256 261 266 268 269 271 272 271 270 270 271 270 269 270 272 274 272 272 275 277 279 279 279 279 275 276 277 278 279 277 279 283 287 289
240 240 242 246 247 249 251 250 252 255 257 261 265 267 269 270 270 268 268 268 270 269 269 269 269 271 269 270 269 270 273 272 270 271 272 273 274 275 278 276 277 279 282 283
242 244 246 250 249 249 249 250 253 255 257 260 263 266 268 268 268 266 265 266 268 269 268 268 267 266 267 266 266 266 268 266 265 267 268 269 272 273 274 275 279 280 280 279
242 245 248 251 253 252 250 250 253 255 258 260 262 264 266 267 267 266 265 264 265 267 267 267 266 265 266 264 265 265 266 265 264 265 266 269 270 270 273 274 275 278 277 277
244 247 250 253 254 254 255 254 255 256 259 261 262 263 265 266 265 264 263 263 264 264 264 264 264 264 265 266 264 265 267 267 266 266 265 266 268 270 274 275 273 273 273 275
249 250 252 253 255 257 257 256 257 258 259 260 261 262 264 265 264 264 264 263 264 265 265 264 264 264 265 266 265 264 266 267 267 268 266 265 268 270 272 272 270 270 271 272
251 253 255 256 257 257 257 257 258 260 258 258 260 261 262 262 263 265 266 265 265 266 265 264 264 264 265 266 266 265 265 266 267 267 266 265 266 269 270 269 267 268 269 271
250 254 256 256 258 259 258 257 258 258 258 258 259 261 262 261 262 265 267 267 266 266 265 263 264 264 265 265 266 266 266 267 265 265 265 264 266 267 267 267 267 268 268 270
251 253 256 257 258 259 259 258 259 259 258 258 259 260 261 261 262 264 266 266 266 265 264 264 264 264 266 267 267 266 266 265 265 266 265 264 264 264 264 265 266 267 268 268
252 254 256 258 259 258 258 258 258 258 257 257 258 259 260 261 262 263 264 265 265 265 264 265 265 264 266 267 266 265 265 265 266 267 265 264 265 264 262 263 265 266 267 268
254 256 257 258 259 259 258 257 258 259 258 258 257 257 258 259 261 263 263 264 266 266 266 266 265 265 266 266 267 265 264 264 264 265 266 265 265 265 264 264 265 265 266 267
254 256 257 258 258 258 258 258 259 259 259 258 258 258 259 260 260 262 264 265 264 265 266 266 266 266 265 266 267 267 265 264 264 265 267 267 266 266 266 265 264 264 264 266
252 255 257 257 258 258 258 258 259 260 260 259 259 260 261 261 260 261 262 263 263 263 265 266 266 266 266 267 266 265 264 264 264 265 266 266 266 266 266 267 266 265 264 265
Height
5870 5872 5872 5872 5873 5873 5873 5873 5873 5873 5872 5871 5871 5871 5870 5869 5868 5867 5866 5866 5865 5864 5863 5861 5860 5859 5858 5858 5857 5856 5856 5855 5854 5853 5853 5852 5851 5850 5849 5848 5847 5847 5846 5846
5868 5869 5870 5870 5870 5871 5871 5871 5871 5871 5870 5870 5869 5869 5868 5868 5867 5866 5865 5864 5863 5862 5861 5860 5859 5858 5857 5857 5856 5855 5855 5854 5853 5852 5851 5851 5849 5848 5848 5847 5847 5846 5845 5845
5865 5867 5867 5868 5868 5869 5869 5869 5869 5869 5869 5868 5868 5868 5867 5866 5865 5865 5864 5863 5862 5861 5860 5859 5858 5857 5856 5856 5855 5854 5854 5853 5852 5851 5851 5850 5849 5848 5847 5847 5846 5845 5845 5844
5862 5863 5864 5865 5866 5866 5867 5867 5867 5867 5867 5867 5867 5867 5866 5865 5864 5863 5862 5861 5861 5860 5859 5858 5857 5856 5856 5855 5854 5854 5853 5852 5851 5851 5850 5849 5848 5848 5847 5846 5845 5845 5844 5844
5859 5860 5861 5862 5863 5863 5864 5864 5865 5865 5865 5865 5865 5865 5865 5863 5862 5862 5861 5860 5859 5859 5858 5857 5856 5855 5854 5854 5853 5853 5852 5851 5851 5850 5849 5848 5848 5847 5846 5845 5845 5844 5844 5843
5855 5856 5858 5859 5860 5860 5861 5862 5862 5862 5863 5863 5863 5863 5863 5862 5861 5860 5860 5859 5858 5857 5856 5856 5855 5854 5853 5853 5852 5852 5851 5850 5850 5849 5848 5847 5847 5846 5846 5845 5844 5843 5843 5842
5851 5853 5854 5855 5856 5858 5859 5860 5861 5860 5861 5861 5861 5860 5861 5860 5859 5858 5858 5857 5856 5856 5855 5854 5854 5853 5852 5852 5851 5850 5850 5849 5849 5848 5847 5846 5846 5845 5845 5844 5843 5843 5842 5841
5847 5849 5850 5852 5853 5854 5855 5857 5858 5859 5858 5858 5858 5857 5859 5857 5857 5856 5856 5855 5854 5854 5853 5853 5852 5852 5851 5850 5850 5849 5849 5848 5847 5846 5845 5845 5844 5844 5844 5843 5842 5842 5841 5840
5843 5845 5847 5848 5849 5851 5852 5853 5854 5855 5854 5855 5855 5855 5855 5855 5854 5854 5853 5853 5852 5852 5851 5851 5850 5850 5849 5849 5848 5848 5847 5846 5846 5845 5844 5843 5843 5842 5842 5842 5841 5841 5840 5839
5839 5841 5842 5844 5845 5847 5848 5849 5850 5850 5851 5851 5852 5852 5853 5852 5851 5851 5851 5850 5849 5849 5849 5848 5848 5848 5847 5847 5846 5846 5845 5845 5844 5843 5842 5841 5841 5841 5841 5840 5840 5839 5838 5838
5834 5836 5838 5839 5841 5842 5844 5845 5845 5846 5847 5848 5848 5851 5849 5849 5848 5848 5847 5847 5846 5846 5846 5846 5845 5845 5845 5844 5844 5844 5843 5842 5842 5841 5840 5840 5839 5839 5839 5839 5838 5838 5837 5836
5829 5832 5833 5835 5836 5837 5839 5840 5841 5843 5843 5844 5844 5848 5845 5845 5845 5844 5844 5844 5843 5843 5843 5843 5843 5842 5842 5842 5842 5841 5841 5840 5840 5839 5838 5838 5837 5837 5837 5837 5836 5836 5835 5835
5824 5827 5829 5830 5833 5833 5834 5835 5836 5838 5838 5839 5840 5843 5840 5840 5840 5840 5840 5840 5840 5840 5840 5840 5839 5839 5839 5839 5839 5839 5838 5838 5837 5836 5836 5836 5835 5835 5835 5834 5834 5834 5833 5833
5819 5821 5824 5826 5827 5828 5829 5830 5831 5833 5833 5834 5835 5836 5836 5836 5836 5836 5836 5836 5836 5836 5836 5836 5836 5836 5836 5836 5836 5835 5835 5835 5834 5834 5833 5833 5833 5832 5832 5832 5832 5831 5831 5830
5814 5816 5818 5819 5821 5822 5824 5825 5826 5827 5828 5829 5830 5830 5831 5831 5831 5831 5831 5832 5832 5832 5832 5832 5832 5832 5832 5832 5832 5832 5832 5832 5831 5831 5831 5830 5830 5829 5829 5829 5829 5828 5828 5827
5808 5810 5812 5814 5815 5816 5818 5819 5820 5821 5823 5823 5824 5825 5825 5825 5826 5826 5826 5827 5827 5827 5828 5828 5828 5828 5828 5828 5828 5828 5828 5828 5828 5827 5827 5827 5827 5826 5826 5826 5826 5825 5825 5824
5803 5805 5806 5808 5809 5810 5812 5814 5815 5816 5817 5818 5818 5820 5819 5819 5820 5821 5821 5821 5822 5822 5822 5823 5823 5823 5823 5823 5823 5824 5824 5823 5823 5823 5823 5823 5823 5823 5823 5822 5822 5821 5821 5820
5797 5798 5800 5801 5803 5803 5808 5808 5808 5809 5810 5811 5812 5812 5813 5813 5814 5814 5815 5815 5816 5816 5817 5817 5817 5817 5818 5818 5818 5818 5819 5819 5819 5819 5819 5819 5819 5818 5818 5818 5817 5817 5817 5816
5790 5792 5793 5795 5795 5797 5800 5801 5801 5802 5804 5804 5805 5806 5806 5807 5807 5808 5809 5809 5810 5810 5811 5811 5811 5811 5812 5812 5812 5813 5813 5813 5813 5813 5814 5814 5814 5814 5813 5813 5813 5813 5813 5812
5784 5785 5787 5787 5788 5790 5794 5794 5794 5796 5796 5797 5798 5798 5799 5800 5801 5802 5802 5802 5803 5803 5804 5804 5805 5805 5806 5806 5806 5807 5807 5807 5808 5808 5808 5808 5808 5808 5808 5808 5808 5808 5808 5807
5776 5777 5778 5779 5779 5782 5785 5786 5786 5788 5790 5790 5790 5791 5792 5793 5795 5795 5795 5796 5796 5796 5797 5797 5798 5799 5799 5799 5800 5800 5800 5801 5801 5801 5801 5802 5802 5802 5802 5802 5803 5803 5803 5802
5768 5769 5770 5771 5772 5776 5776 5777 5778 5780 5781 5782 5782 5784 5785 5786 5787 5788 5788 5789 5789 5789 5790 5790 5791 5791 5792 5792 5793 5793 5793 5794 5794 5795 5795 5795 5795 5796 5796 5796 5796 5797 5797 5796
5760 5762 5762 5764 5766 5767 5767 5768 5769 5770 5772 5773 5774 5776 5777 5778 5779 5780 5781 5782 5782 5783 5783 5783 5784 5784 5784 5785 5785 5785 5786 5786 5787 5787 5788 5788 5788 5788 5789 5789 5789 5790 5790 5790
5752 5753 5754 5755 5757 5757 5758 5759 5760 5761 5763 5764 5766 5767 5768 5770 5771 5772 5773 5774 5775 5775 5776 5776 5776 5776 5777 5777 5777 5778 5778 5778 5779 5780 5780 5780 5781 5781 5781 5782 5782 5782 5782 5782
5744 5745 5746 5747 5749 5749 5750 5751 5752 5753 5754 5756 5757 5758 5760 5761 5762 5763 5764 5766 5767 5767 5768 5768 5769 5769 5769 5769 5769 5769 5770 5770 5771 5771 5772 5772 5772 5773 5773 5773 5774 5774 5775 5775
5736 5737 5738 5739 5741 5741 5743 5743 5744 5745 5746 5747 5749 5750 5751 5751 5753 5754 5755 5757 5758 5759 5760 5760 5760 5761 5761 5761 5761 5761 5762 5762 5762 5763 5763 5763 5763 5764 5764 5764 5765 5765 5766 5766